Location: Newark
(55.4390°N, 25.0170°E)
Time: 10:05:19
(UTC+00:00)

ISS - Visible Passes

Search period start: 04 March 2021 00:00
Search period end: 14 March 2021 00:00
Orbit: 417 x 422 km, 51.6° (Epoch: 04 March)

Date Brightness Start Highest point End Pass type
(mag) Time Alt. Az. Time Alt. Az. Time Alt. Az.
04 Mar -0.5 01:36:49 11° E 01:36:49 11° E 01:36:59 10° E visible
04 Mar -3.2 03:09:46 38° SW 03:10:24 43° S 03:13:37 10° ESE visible
05 Mar -2.3 02:24:06 31° SE 02:24:06 31° SE 02:26:13 10° ESE visible
05 Mar -2.7 03:57:03 14° WSW 03:59:27 32° SSW 04:02:29 10° SE visible
06 Mar -0.7 01:38:26 12° ESE 01:38:26 12° ESE 01:38:47 10° E visible
06 Mar -3.0 03:11:24 33° SW 03:12:04 37° SSW 03:15:12 10° ESE visible
07 Mar -2.3 02:25:47 30° SE 02:25:47 30° SE 02:27:51 10° ESE visible
07 Mar -2.1 03:58:44 12° WSW 04:00:59 21° SSW 04:03:37 10° SSE visible
08 Mar -0.7 01:40:12 12° ESE 01:40:12 12° ESE 01:40:28 10° ESE visible
08 Mar -2.6 03:13:10 26° SW 03:13:38 27° SSW 03:16:31 10° SE visible
09 Mar -2.0 02:27:40 23° SSE 02:27:40 23° SSE 02:29:19 10° SE visible
09 Mar -1.5 04:00:54 10° WSW 04:02:21 12° SW 04:03:49 10° S visible
10 Mar -1.9 03:15:13 16° SSW 03:15:13 16° SSW 03:17:18 10° S visible
11 Mar -1.2 02:29:56 12° SSE 02:29:56 12° SSE 02:30:23 10° SSE visible
